When you browse on this site, cookies collect data to enhance your experience and personalize the content and advertising you see.
Visit our Privacy Policy to learn more. By continuing to use the site, you agree to this use of cookies and data.
  • In Austria
  • List of Countries
  • For 7 days
  • Water Temperature
  • Weather Map
  • News
  • Weather Widgets
  • user-avatar
    Login

    Hourly Weather Atitalaquia

    Today, 23 August, Friday

    Time Temperature Precipitation Wind Pressure Humidity
    00:00 +18°C° 1.3 mm 1 mps 594 mmHg 89%
    01:00 +16°C° 1.3 mm 1 mps 593 mmHg 90%
    02:00 +16°C° 1.3 mm 1 mps 593 mmHg 91%
    03:00 +15°C° 0.8 mm 1 mps 593 mmHg 92%
    04:00 +15°C° 0.8 mm 1 mps 593 mmHg 92%
    05:00 +14°C° 0 mm 0 mps 593 mmHg 89%
    06:00 +16°C° 0.1 mm 1 mps 594 mmHg 83%
    07:00 +19°C° 0.1 mm 1 mps 595 mmHg 78%
    08:00 +20°C° 0.1 mm 1 mps 595 mmHg 73%
    09:00 +22°C° 0.2 mm 1 mps 596 mmHg 68%
    10:00 +23°C° 0.2 mm 2 mps 596 mmHg 62%
    11:00 +25°C° 0.2 mm 2 mps 596 mmHg 57%
    12:00 +25°C° 0.8 mm 3 mps 596 mmHg 57%
    13:00 +25°C° 0.8 mm 3 mps 596 mmHg 57%
    14:00 +25°C° 0.8 mm 4 mps 595 mmHg 57%
    15:00 +24°C° 1.6 mm 3 mps 595 mmHg 62%
    16:00 +22°C° 1.6 mm 3 mps 594 mmHg 68%
    17:00 +21°C° 1.6 mm 2 mps 594 mmHg 74%
    18:00 +20°C° 1.6 mm 3 mps 594 mmHg 78%
    19:00 +18°C° 1.6 mm 3 mps 594 mmHg 83%
    20:00 +15°C° 1.6 mm 4 mps 594 mmHg 87%
    21:00 +16°C° 0.1 mm 3 mps 593 mmHg 87%
    22:00 +15°C° 0.1 mm 2 mps 593 mmHg 87%
    23:00 +15°C° 0.1 mm 2 mps 593 mmHg 87%

    Tomorrow, 24 August, Saturday

    Time Temperature Precipitation Wind Pressure Humidity
    00:00 +15°C° 0 mm 1 mps 593 mmHg 87%
    01:00 +15°C° 0 mm 1 mps 593 mmHg 86%
    02:00 +15°C° 0 mm 1 mps 593 mmHg 86%
    03:00 +15°C° 0 mm 1 mps 593 mmHg 85%
    04:00 +15°C° 0 mm 1 mps 593 mmHg 85%
    05:00 +15°C° 0 mm 1 mps 593 mmHg 85%
    06:00 +16°C° 0 mm 1 mps 593 mmHg 79%
    07:00 +18°C° 0 mm 1 mps 594 mmHg 74%
    08:00 +20°C° 0 mm 1 mps 595 mmHg 69%
    09:00 +21°C° 0.1 mm 1 mps 596 mmHg 65%
    10:00 +23°C° 0.1 mm 1 mps 596 mmHg 60%
    11:00 +25°C° 0.1 mm 1 mps 596 mmHg 56%
    12:00 +25°C° 0.8 mm 1 mps 596 mmHg 55%
    13:00 +25°C° 0.8 mm 2 mps 596 mmHg 54%
    14:00 +26°C° 0.8 mm 2 mps 596 mmHg 53%
    15:00 +25°C° 1.4 mm 2 mps 595 mmHg 59%
    16:00 +24°C° 1.4 mm 2 mps 594 mmHg 64%
    17:00 +23°C° 1.4 mm 2 mps 594 mmHg 70%
    18:00 +20°C° 1.5 mm 2 mps 594 mmHg 75%
    19:00 +19°C° 1.5 mm 2 mps 594 mmHg 80%
    20:00 +17°C° 1.5 mm 2 mps 594 mmHg 84%
    21:00 +18°C° 0.2 mm 1 mps 594 mmHg 85%
    22:00 +18°C° 0.2 mm 1 mps 594 mmHg 85%
    23:00 +15°C° 0.2 mm 0 mps 594 mmHg 85%

    Day after tomorrow, 25 August, Sunday

    Time Temperature Precipitation Wind Pressure Humidity
    00:00 +15°C° 0 mm 0 mps 593 mmHg 85%
    01:00 +15°C° 0 mm 0 mps 593 mmHg 84%
    02:00 +15°C° 0 mm 0 mps 593 mmHg 84%
    03:00 +15°C° 0 mm 0 mps 593 mmHg 85%
    04:00 +14°C° 0 mm 0 mps 592 mmHg 85%
    05:00 +14°C° 0 mm 0 mps 592 mmHg 85%
    06:00 +15°C° 0 mm 0 mps 593 mmHg 79%
    07:00 +19°C° 0 mm 1 mps 594 mmHg 73%
    08:00 +21°C° 0 mm 1 mps 595 mmHg 67%
    09:00 +23°C° 0 mm 1 mps 596 mmHg 62%
    10:00 +24°C° 0 mm 1 mps 596 mmHg 56%
    11:00 +26°C° 0 mm 1 mps 596 mmHg 51%
    12:00 +26°C° 0.4 mm 1 mps 596 mmHg 50%
    13:00 +27°C° 0.4 mm 2 mps 596 mmHg 49%
    14:00 +27°C° 0.4 mm 3 mps 595 mmHg 48%
    15:00 +26°C° 0.5 mm 3 mps 595 mmHg 53%
    16:00 +26°C° 0.5 mm 2 mps 594 mmHg 58%
    17:00 +25°C° 0.5 mm 2 mps 594 mmHg 63%
    18:00 +23°C° 0.9 mm 2 mps 594 mmHg 69%
    19:00 +21°C° 0.9 mm 1 mps 594 mmHg 75%
    20:00 +20°C° 0.9 mm 1 mps 593 mmHg 80%
    21:00 +19°C° 0.6 mm 1 mps 593 mmHg 81%
    22:00 +19°C° 0.6 mm 1 mps 593 mmHg 82%
    23:00 +18°C° 0.6 mm 1 mps 593 mmHg 84%

    26 August, Monday

    Time Temperature Precipitation Wind Pressure Humidity
    00:00 +18°C° 1.1 mm 1 mps 593 mmHg 85%
    01:00 +16°C° 1.1 mm 1 mps 592 mmHg 87%
    02:00 +16°C° 1.1 mm 1 mps 592 mmHg 88%
    03:00 +16°C° 0.3 mm 1 mps 592 mmHg 89%
    04:00 +15°C° 0.3 mm 1 mps 592 mmHg 89%
    05:00 +14°C° 0.3 mm 0 mps 591 mmHg 89%
    06:00 +16°C° 0 mm 0 mps 592 mmHg 83%
    07:00 +17°C° 0 mm 0 mps 593 mmHg 78%
    08:00 +19°C° 0 mm 0 mps 594 mmHg 72%
    09:00 +20°C° 0.1 mm 0 mps 594 mmHg 66%
    10:00 +22°C° 0.1 mm 0 mps 595 mmHg 60%
    11:00 +25°C° 0.1 mm 1 mps 595 mmHg 54%
    12:00 +26°C° 0.6 mm 1 mps 595 mmHg 53%
    13:00 +26°C° 0.6 mm 1 mps 594 mmHg 52%
    14:00 +26°C° 0.6 mm 2 mps 594 mmHg 51%
    15:00 +25°C° 0.6 mm 2 mps 593 mmHg 56%
    16:00 +24°C° 0.6 mm 2 mps 593 mmHg 62%
    17:00 +22°C° 0.6 mm 3 mps 593 mmHg 68%
    18:00 +21°C° 0.9 mm 2 mps 593 mmHg 73%
    19:00 +20°C° 0.9 mm 2 mps 593 mmHg 77%
    20:00 +19°C° 0.9 mm 1 mps 593 mmHg 82%
    21:00 +19°C° 0.6 mm 1 mps 593 mmHg 83%
    22:00 +18°C° 0.6 mm 1 mps 593 mmHg 85%
    23:00 +16°C° 0.6 mm 1 mps 592 mmHg 86%

    27 August, Tuesday

    Time Temperature Precipitation Wind Pressure Humidity
    00:00 +16°C° 0.1 mm 1 mps 592 mmHg 87%
    01:00 +14°C° 0.1 mm 0 mps 592 mmHg 87%
    02:00 +14°C° 0.1 mm 0 mps 591 mmHg 88%
    03:00 +14°C° 0 mm 0 mps 591 mmHg 88%
    04:00 +14°C° 0 mm 0 mps 591 mmHg 88%
    05:00 +13°C° 0 mm 0 mps 591 mmHg 88%
    06:00 +15°C° 0 mm 0 mps 592 mmHg 83%
    07:00 +17°C° 0 mm 0 mps 593 mmHg 77%
    08:00 +18°C° 0 mm 0 mps 594 mmHg 71%
    09:00 +20°C° 0.3 mm 0 mps 594 mmHg 66%
    10:00 +23°C° 0.3 mm 1 mps 595 mmHg 60%
    11:00 +25°C° 0.3 mm 1 mps 595 mmHg 55%
    12:00 +25°C° 0.5 mm 1 mps 595 mmHg 53%
    13:00 +26°C° 0.5 mm 2 mps 594 mmHg 50%
    14:00 +26°C° 0.5 mm 3 mps 594 mmHg 48%
    15:00 +25°C° 0.8 mm 3 mps 594 mmHg 56%
    16:00 +24°C° 0.8 mm 3 mps 593 mmHg 64%
    17:00 +21°C° 0.8 mm 3 mps 593 mmHg 71%
    18:00 +20°C° 0.5 mm 2 mps 593 mmHg 75%
    19:00 +19°C° 0.5 mm 2 mps 593 mmHg 78%
    20:00 +19°C° 0.5 mm 1 mps 593 mmHg 82%
    21:00 +18°C° 0.7 mm 1 mps 594 mmHg 83%
    22:00 +18°C° 0.7 mm 1 mps 594 mmHg 84%
    23:00 +16°C° 0.7 mm 1 mps 594 mmHg 85%

    28 August, Wednesday

    Time Temperature Precipitation Wind Pressure Humidity
    00:00 +16°C° 0.3 mm 1 mps 593 mmHg 85%
    01:00 +16°C° 0.3 mm 1 mps 593 mmHg 86%
    02:00 +14°C° 0.3 mm 0 mps 593 mmHg 86%
    03:00 +14°C° 0 mm 0 mps 593 mmHg 86%
    04:00 +14°C° 0 mm 0 mps 593 mmHg 86%
    05:00 +13°C° 0 mm 0 mps 593 mmHg 86%
    06:00 +15°C° 0 mm 0 mps 594 mmHg 80%
    07:00 +16°C° 0 mm 0 mps 595 mmHg 75%
    08:00 +18°C° 0 mm 0 mps 596 mmHg 69%
    09:00 +21°C° 0.6 mm 1 mps 596 mmHg 64%
    10:00 +23°C° 0.6 mm 1 mps 596 mmHg 59%
    11:00 +24°C° 0.6 mm 2 mps 596 mmHg 54%
    12:00 +25°C° 0.6 mm 3 mps 596 mmHg 55%
    13:00 +25°C° 0.6 mm 3 mps 596 mmHg 56%
    14:00 +25°C° 0.6 mm 4 mps 595 mmHg 56%
    15:00 +23°C° 2.7 mm 4 mps 595 mmHg 64%
    16:00 +21°C° 2.7 mm 4 mps 594 mmHg 72%
    17:00 +20°C° 2.7 mm 4 mps 594 mmHg 80%
    18:00 +19°C° 1.1 mm 3 mps 594 mmHg 82%
    19:00 +18°C° 1.1 mm 3 mps 594 mmHg 85%
    20:00 +17°C° 1.1 mm 2 mps 594 mmHg 88%
    21:00 +16°C° 0.3 mm 2 mps 594 mmHg 88%
    22:00 +16°C° 0.3 mm 1 mps 594 mmHg 88%
    23:00 +15°C° 0.3 mm 1 mps 594 mmHg 89%
    Show more